User: anonymous   Login
Location: Unspecified
(0.0000°N, 0.0000°E)
Time: 19:56:14
(UTC+00:00)
Language:

FORMOSAT 3A - Orbit

View from above orbital plane
View from above orbital plane
View from above satellite
View from above satellite

Ground track
Ground track

The orbit data is extracted from the following two-line orbital elements,

1 29047U 06011A   18017.45453994 -.00000003  00000-0  14917-4 0  9990
2 29047  71.9799 109.9750 0049048 144.9409 215.4973 14.28619230615361
Epoch (UTC): 17 January 2018 10:54:32
Eccentricity: 0.0049048
inclination: 71.9799°
perigee height: 761 km
apogee height: 831 km
right ascension of ascending node: 109.9750°
argument of perigee: 144.9409°
revolutions per day: 14.28619230
mean anomaly at epoch: 215.4973°
orbit number at epoch: 61536

The dashed part of the orbit path shows where the satellite is in the earth's shadow,  

DLR